De Soto, IL

11:04 AM CST on December 10, 2016 (GMT -0600)
Southern Illinois

Weather History for KMDH - July, 2013

Change the Weather History Date:

Thursday, July 25, 2013

  Actual Average Record
Temperature  
Mean Temperature 68 °F -  
Max Temperature 81 °F 88 °F 112 °F (1934)
Min Temperature 57 °F 66 °F 54 °F (1911)
Cooling Degree Days 4    
Growing Degree Days 18 (Base 50)    
Moisture  
Dew Point 57 °F    
Average Humidity 69    
Maximum Humidity 93    
Minimum Humidity 42    
Precipitation  
Precipitation 0.00 in - - ()
Sea Level Pressure  
Sea Level Pressure 30.07 in    
Wind  
Wind Speed 4 mph (North)    
Max Wind Speed 12 mph    
Max Gust Speed 17 mph    
Visibility 10 miles    
Events      
Averages and records for this station are not official NWS values.
T = Trace of Precipitation, MM = Missing Value Source: NWS Daily Summary

Daily Weather History Graph

Daily Weather History Graph

Search for Another Location

Airport or City:

Trip Planner

Search our weather history database for the weather conditions in past years. The results will help you decide how hot, cold, wet, or windy it might be!

Date:

Astronomy

Jul. 25, 2013 Rise Set
Actual Time 5:54 AM CDT 8:11 PM CDT
Civil Twilight 5:25 AM CDT 8:41 PM CDT
Nautical Twilight 4:48 AM CDT 9:17 PM CDT
Astronomical Twilight 4:08 AM CDT 9:57 PM CDT
Moon 9:57 PM CDT (7/25) 9:19 AM CDT (7/25)
Length of Visible Light 15h 16m
Length of Day
14h 16m
Waning Gibbous, 88% of the Moon is Illuminated
Jul 25
Waning Gibbous
Jul 29
Last Quarter
Aug 6
New
Aug 14
First Quarter
Aug 20
Full

Hourly Weather History & Observations

Time (CDT) Temp. Heat Index Dew Point Humidity Pressure Visibility Wind Dir Wind Speed Gust Speed Precip Events Conditions
12:52 AM 62.1 °F - 57.0 °F 84% 30.02 in 10.0 mi North 4.6 mph - N/A   Clear
1:52 AM 60.1 °F - 57.0 °F 90% 30.02 in 10.0 mi Calm Calm - N/A   Clear
2:52 AM 60.1 °F - 57.0 °F 90% 30.02 in 10.0 mi Calm Calm - N/A   Clear
3:52 AM 57.9 °F - 55.9 °F 93% 30.02 in 10.0 mi North 3.5 mph - N/A   Clear
4:52 AM 57.9 °F - 55.9 °F 93% 30.03 in 10.0 mi Calm Calm - N/A   Clear
5:52 AM 57.0 °F - 55.0 °F 93% 30.05 in 10.0 mi NNW 3.5 mph - N/A   Clear
6:52 AM 60.1 °F - 57.0 °F 90% 30.06 in 10.0 mi NW 3.5 mph - N/A   Clear
7:52 AM 64.0 °F - 59.0 °F 84% 30.06 in 10.0 mi North 4.6 mph - N/A   Clear
8:52 AM 69.1 °F - 59.0 °F 70% 30.09 in 10.0 mi North 5.8 mph - N/A   Clear
9:52 AM 73.0 °F - 57.9 °F 59% 30.09 in 10.0 mi North 6.9 mph - N/A   Clear
10:52 AM 75.9 °F - 55.9 °F 50% 30.11 in 10.0 mi NNE 9.2 mph - N/A   Scattered Clouds
11:52 AM 78.1 °F - 55.9 °F 46% 30.11 in 10.0 mi North 10.4 mph - N/A   Scattered Clouds
12:52 PM 79.0 °F - 55.9 °F 45% 30.11 in 10.0 mi NNE 11.5 mph 17.3 mph N/A   Scattered Clouds
1:52 PM 80.1 °F 80.1 °F 55.0 °F 42% 30.09 in 10.0 mi NNE 9.2 mph - N/A   Scattered Clouds
2:52 PM 80.1 °F 80.1 °F 55.0 °F 42% 30.09 in 10.0 mi North 8.1 mph - N/A   Scattered Clouds
3:52 PM 79.0 °F - 55.9 °F 45% 30.08 in 10.0 mi Calm Calm - N/A   Clear
4:52 PM 79.0 °F - 55.9 °F 45% 30.08 in 10.0 mi NE 4.6 mph - N/A   Partly Cloudy
5:52 PM 79.0 °F - 55.0 °F 44% 30.07 in 10.0 mi Calm Calm - N/A   Clear
6:52 PM 77.0 °F - 57.9 °F 52% 30.07 in 10.0 mi Calm Calm - N/A   Clear
7:52 PM 73.0 °F - 61.0 °F 66% 30.07 in 10.0 mi ENE 3.5 mph - N/A   Clear
8:52 PM 69.1 °F - 61.0 °F 75% 30.06 in 10.0 mi Calm Calm - N/A   Clear
9:52 PM 64.9 °F - 60.1 °F 84% 30.07 in 10.0 mi Calm Calm - N/A   Clear
10:52 PM 63.0 °F - 60.1 °F 90% 30.08 in 10.0 mi Calm Calm - N/A   Clear
11:52 PM 62.1 °F - 59.0 °F 90% 30.08 in 10.0 mi Calm Calm - N/A   Clear